Location: Piotrkow Trybunalski
(51.4000°N, 19.6830°E)
Time: 10:14:14
(UTC+01:00)

BlueWalker 3 - Pass Details

Date: 02 December 2022
Orbit: 499 x 517 km, 53.2° (Epoch: 29 January)

Event Time Altitude Azimuth Distance (km) Brightness Sun altitude
Rises 18:34:40 0° 284° (WNW) 2,629 6.8 -26.9°
Reaches altitude 10° 18:36:53 10° 286° (WNW) 1,737 5.6 -27.2°
Enters shadow 18:39:12 34° 291° (WNW) 862 3.5 -27.6°
